KA1WBH Weather Reports


Display with metric or nautical units.
time (UTC)temp
F
wind
direction
speed
MPH
gust
MPH
rain 1hr
in
rain 24hr
in
rain mn
in
humidity
%
barometer
mb
20200531221718 66 329 1.0 15.0 0.00 0.00 0.00 43 1015.7
20200531220719 66 356 6.0 10.0 0.00 0.00 0.00 44 1015.6
20200531215718 67 298 0.0 9.0 0.00 0.00 0.00 39 1015.4
20200531214719 68 304 3.0 10.0 0.00 0.00 0.00 42 1015.3
20200531213719 68 335 8.0 15.0 0.00 0.00 0.00 39 1015.3
20200531212719 68 355 3.0 11.0 0.00 0.00 0.00 39 1015.2
20200531211749 68 4 5.0 13.0 0.00 0.00 0.00 37 1014.9
20200531210719 68 318 2.0 11.0 0.00 0.00 0.00 41 1014.8
20200531205719 69 357 5.0 10.0 0.00 0.00 0.00 37 1014.8
20200531204718 70 343 5.0 10.0 0.00 0.00 0.00 37 1014.8
20200531203719 71 293 5.0 12.0 0.00 0.00 0.00 36 1014.8
20200531202718 70 326 1.0 13.0 0.00 0.00 0.00 36 1014.7
20200531201718 70 327 6.0 15.0 0.00 0.00 0.00 36 1014.7
20200531200719 70 338 6.0 13.0 0.00 0.00 0.00 37 1014.6
20200531195718 69 341 6.0 16.0 0.00 0.00 0.00 38 1014.6
20200531194718 71 314 2.0 10.0 0.00 0.00 0.00 37 1014.5
20200531193719 70 327 5.0 12.0 0.00 0.00 0.00 35 1014.5
20200531192719 70 329 0.0 12.0 0.00 0.00 0.00 36 1014.4
20200531191718 70 325 0.0 9.0 0.00 0.00 0.00 38 1014.4
20200531190719 69 286 4.0 11.0 0.00 0.00 0.00 36 1014.4
20200531185749 70 310 0.0 14.0 0.00 0.00 0.00 35 1014.4
20200531184718 70 310 5.0 12.0 0.00 0.00 0.00 38 1014.5
20200531183718 69 294 1.0 11.0 0.00 0.00 0.00 40 1014.3
20200531182718 70 344 3.0 8.0 0.00 0.00 0.00 40 1014.2
20200531181718 70 299 0.0 10.0 0.00 0.00 0.00 36 1014.2
20200531180718 69 287 0.0 10.0 0.00 0.00 0.00 39 1014.2
20200531175718 68 322 2.0 11.0 0.00 0.00 0.00 41 1014.3
20200531174719 67 7 4.0 13.0 0.00 0.00 0.00 39 1014.5
20200531173718 67 3 4.0 12.0 0.00 0.00 0.00 39 1014.3
20200531172748 68 339 4.0 15.0 0.00 0.00 0.00 39 1014.4
20200531171719 68 320 0.0 15.0 0.00 0.00 0.00 42 1014.4
20200531170718 67 303 2.0 13.0 0.00 0.00 0.00 43 1014.5
20200531165718 68 343 13.0 13.0 0.00 0.00 0.00 45 1014.5
20200531164718 68 330 3.0 13.0 0.00 0.00 0.00 46 1014.5
20200531163718 68 348 5.0 17.0 0.00 0.00 0.00 48 1014.6
20200531162718 67 280 9.0 12.0 0.00 0.00 0.00 47 1014.6
20200531161718 67 286 2.0 14.0 0.00 0.00 0.00 43 1014.7
20200531160718 67 321 3.0 12.0 0.00 0.00 0.00 43 1014.7
20200531155719 67 312 5.0 17.0 0.00 0.00 0.00 48 1014.7
20200531154719 67 343 4.0 15.0 0.00 0.00 0.00 51 1014.7
20200531153718 67 359 0.0 12.0 0.00 0.00 0.00 50 1014.6
20200531152718 66 351 4.0 14.0 0.00 0.00 0.00 53 1014.6
20200531151718 67 38 3.0 15.0 0.00 0.00 0.00 53 1014.8
20200531150719 67 346 6.0 16.0 0.00 0.00 0.00 54 1014.7
20200531145748 67 336 6.0 13.0 0.00 0.00 0.00 55 1014.6
20200531144718 66 354 5.0 11.0 0.00 0.00 0.00 53 1014.6
20200531143718 66 6 3.0 17.0 0.00 0.00 0.00 54 1014.6
20200531142718 66 289 1.0 13.0 0.00 0.00 0.00 56 1014.5
20200531141748 66 341 4.0 14.0 0.00 0.00 0.00 57 1014.4
20200531140718 66 302 1.0 14.0 0.00 0.00 0.00 60 1014.3
20200531135718 66 23 1.0 14.0 0.00 0.00 0.00 62 1014.2
20200531134718 66 298 2.0 14.0 0.00 0.00 0.00 59 1014.2
20200531133718 65 326 9.0 15.0 0.00 0.00 0.00 60 1014.0
20200531132719 65 304 5.0 13.0 0.00 0.00 0.00 60 1013.9
20200531131718 65 339 7.0 12.0 0.00 0.00 0.00 62 1013.9
20200531130718 65 331 3.0 14.0 0.00 0.00 0.00 64 1013.9
20200531125748 65 342 11.0 13.0 0.00 0.00 0.00 62 1013.9
20200531124718 64 324 3.0 15.0 0.00 0.00 0.00 62 1013.7
20200531123718 64 318 3.0 15.0 0.00 0.00 0.00 64 1013.7
20200531122718 64 314 6.0 19.0 0.00 0.00 0.00 64 1013.7
20200531121718 63 306 13.0 20.0 0.00 0.00 0.00 64 1013.5
20200531120718 63 324 0.0 16.0 0.00 0.00 0.00 65 1013.4
20200531115718 63 330 1.0 14.0 0.00 0.00 0.00 68 1013.3
20200531114718 63 314 11.0 14.0 0.00 0.00 0.00 68 1013.3
20200531113718 63 329 10.0 18.0 0.00 0.00 0.00 68 1013.3
20200531112718 63 311 4.0 19.0 0.00 0.00 0.00 70 1013.4
20200531111718 62 285 4.0 14.0 0.00 0.00 0.00 71 1013.2
20200531110718 62 334 1.0 15.0 0.00 0.00 0.00 71 1013.2
20200531105718 62 298 1.0 14.0 0.00 0.00 0.00 72 1012.9
20200531104718 62 329 0.0 14.0 0.00 0.00 0.00 72 1012.9
20200531103718 62 303 2.0 15.0 0.00 0.00 0.00 72 1012.7
20200531102718 62 287 1.0 10.0 0.00 0.00 0.00 73 1012.7
20200531101718 62 293 9.0 12.0 0.00 0.01 0.00 72 1012.6
20200531100718 61 252 0.0 16.0 0.00 0.01 0.00 73 1012.4
20200531095718 61 300 2.0 20.0 0.00 0.01 0.00 73 1012.2
20200531094718 61 315 1.0 13.0 0.00 0.01 0.00 73 1011.9
20200531093718 61 290 6.0 12.0 0.00 0.01 0.00 73 1011.8
20200531092718 62 352 0.0 20.0 0.00 0.01 0.00 72 1011.6
20200531091718 62 327 12.0 15.0 0.00 0.01 0.00 72 1011.6
20200531090718 62 323 4.0 15.0 0.00 0.01 0.00 72 1011.4
20200531085718 62 322 0.0 15.0 0.00 0.01 0.00 72 1011.2
20200531084718 63 279 6.0 12.0 0.00 0.02 0.00 72 1010.8
20200531083718 63 325 1.0 16.0 0.00 0.02 0.00 72 1010.6
20200531082719 63 349 0.0 9.0 0.00 0.02 0.00 72 1010.6
20200531081718 63 335 3.0 13.0 0.00 0.03 0.00 72 1010.5
20200531080718 63 331 6.0 16.0 0.00 0.03 0.00 73 1010.4
20200531075719 63 326 4.0 12.0 0.00 0.03 0.00 73 1010.3
20200531074718 63 317 2.0 12.0 0.00 0.03 0.00 73 1010.5
20200531073718 64 290 3.0 11.0 0.00 0.03 0.00 72 1010.3
20200531072718 64 316 5.0 12.0 0.00 0.03 0.00 73 1010.3
20200531071718 64 293 3.0 14.0 0.00 0.03 0.00 71 1010.4
20200531070718 64 304 1.0 12.0 0.00 0.03 0.00 72 1010.3
20200531065718 64 322 0.0 14.0 0.00 0.03 0.00 70 1010.3
20200531064718 64 340 2.0 16.0 0.00 0.03 0.00 70 1010.2
20200531063718 64 333 4.0 12.0 0.00 0.03 0.00 71 1010.2
20200531062718 64 303 5.0 15.0 0.00 0.04 0.00 72 1010.1
20200531061718 64 315 0.0 10.0 0.00 0.04 0.00 74 1010.1
20200531060718 64 306 2.0 11.0 0.00 0.04 0.00 74 1010.0
20200531055718 64 338 7.0 10.0 0.00 0.04 0.00 75 1009.8
20200531054718 65 339 3.0 10.0 0.00 0.04 0.00 75 1009.8
20200531053718 65 325 5.0 14.0 0.00 0.04 0.00 74 1009.8
20200531052718 65 291 6.0 14.0 0.00 0.04 0.00 75 1009.9
20200531051718 65 327 6.0 11.0 0.00 0.04 0.00 75 1009.9
20200531050718 66 323 7.0 15.0 0.00 0.05 0.00 75 1010.1
20200531045718 66 325 0.0 14.0 0.00 0.06 0.00 76 1010.1
20200531044718 66 316 2.0 18.0 0.00 0.06 0.00 78 1010.2
20200531043718 65 298 1.0 11.0 0.00 0.06 0.00 81 1010.1
20200531042718 65 278 5.0 16.0 0.00 0.06 0.00 83 1009.8
20200531041718 64 272 5.0 13.0 0.00 0.06 0.00 86 1009.8
20200531040718 64 254 4.0 13.0 0.00 0.06 0.00 86 1009.7
20200531035748 64 242 0.0 11.0 0.00 0.06 0.00 85 1009.8
20200531034718 64 235 5.0 12.0 0.00 0.06 0.06 85 1009.8
20200531033718 64 251 3.0 11.0 0.00 0.06 0.06 85 1009.8
20200531032718 65 254 3.0 11.0 0.00 0.06 0.06 84 1009.9
20200531031718 65 242 1.0 10.0 0.00 0.06 0.06 84 1009.8
20200531030718 65 267 3.0 9.0 0.00 0.06 0.06 83 1009.8
20200531025748 65 264 2.0 11.0 0.00 0.06 0.06 84 1009.9
20200531024718 65 275 0.0 10.0 0.00 0.06 0.06 84 1009.9
20200531023718 65 250 1.0 13.0 0.00 0.06 0.06 85 1009.9
20200531022718 64 279 6.0 10.0 0.00 0.06 0.06 88 1010.0
20200531021718 63 250 1.0 11.0 0.00 0.06 0.06 91 1010.0
20200531020718 62 238 7.0 7.0 0.00 0.06 0.06 92 1010.0
20200531015718 63 239 0.0 5.0 0.00 0.06 0.06 92 1010.1
20200531014718 63 235 0.0 3.0 0.00 0.06 0.06 92 1010.1
20200531013718 63 233 0.0 5.0 0.00 0.06 0.06 92 1010.0
20200531012717 63 242 0.0 7.0 0.00 0.06 0.06 92 1009.9
20200531011718 63 247 0.0 7.0 0.00 0.06 0.06 92 1009.9
20200531010718 63 235 0.0 9.0 0.00 0.06 0.06 92 1009.9
20200531005748 63 253 4.0 10.0 0.00 0.06 0.06 92 1009.9
20200531004718 63 245 0.0 10.0 0.00 0.06 0.06 92 1009.8
20200531003718 63 242 7.0 10.0 0.00 0.06 0.06 91 1009.8
20200531002718 63 229 3.0 11.0 0.00 0.06 0.06 92 1009.8
20200531001718 63 264 0.0 10.0 0.00 0.06 0.06 92 1009.8
20200531000719 63 218 0.0 15.0 0.00 0.06 0.06 92 1009.8
20200530235717 63 214 2.0 14.0 0.00 0.06 0.06 92 1009.8
20200530234718 63 43 12.0 14.0 0.00 0.06 0.06 93 1009.7
20200530233717 63 248 7.0 14.0 0.00 0.06 0.06 92 1009.6
20200530232717 64 223 2.0 14.0 0.00 0.06 0.06 92 1009.6
20200530231717 64 227 6.0 16.0 0.00 0.06 0.06 91 1009.6
20200530230718 65 198 3.0 13.0 0.00 0.06 0.06 89 1009.5
20200530225748 65 223 9.0 14.0 0.00 0.06 0.06 89 1009.4
20200530224748 65 243 13.0 15.0 0.00 0.06 0.06 90 1009.3
20200530223748 64 233 4.0 15.0 0.00 0.06 0.06 91 1009.2
20200530222718 64 229 1.0 11.0 0.00 0.06 0.06 91 1009.1